Location: �terpigny
(49.8910°N, 2.9249°E)
Time: 04:29:23
(UTC+00:00)

Cosmos 614 Rocket - Pass Details

Date: 04 June 2022
Orbit: 732 x 764 km, 74.1° (Epoch: 06 July)

Event Time Altitude Azimuth Distance (km) Brightness Sun altitude
Rises 23:47:52 0° 337° (NNW) 3,226 8.5 -17.6°
Reaches altitude 10° 23:50:15 10° 339° (NNW) 2,300 7.5 -17.6°
Maximum altitude 23:55:29 75° 65° (ENE) 793 4.1 -17.6°
Enters shadow 23:58:37 25° 147° (SSE) 1,523 5.1 -17.5°
